TimeCST,TemperatureF,Dew PointF,Humidity,Sea Level PressureIn,VisibilityMPH,Wind Direction,Wind SpeedMPH,Gust SpeedMPH,PrecipitationIn,Events,Conditions,WindDirDegrees,DateUTC
12:00 AM,64.4,62.6,94,30.30,1.9,East,6.9,-,N/A,Rain,Heavy Rain,100,2013-08-16 06:00:00
1:00 AM,60.8,60.8,100,30.27,5.0,Variable,3.5,-,N/A,Rain,Light Rain,0,2013-08-16 07:00:00
2:00 AM,62.6,60.8,94,30.24,5.0,North,4.6,-,N/A,Rain,Rain,360,2013-08-16 08:00:00
3:00 AM,62.6,59.0,88,30.24,6.2,NNE,5.8,-,N/A,,Drizzle,20,2013-08-16 09:00:00
4:00 AM,62.6,60.8,94,30.24,6.2,North,5.8,-,N/A,,Drizzle,360,2013-08-16 10:00:00
5:00 AM,62.6,60.8,94,30.24,6.2,North,5.8,-,N/A,,Scattered Clouds,360,2013-08-16 11:00:00
6:00 AM,60.8,60.8,100,30.21,6.2,North,6.9,-,N/A,,Mostly Cloudy,360,2013-08-16 12:00:00
7:00 AM,64.4,60.8,88,30.24,6.2,North,9.2,-,N/A,,Overcast,360,2013-08-16 13:00:00
7:34 AM,-9999,-9999,N/A,-9999,5.0,Calm,Calm,-,N/A,,Light Drizzle,0,2013-08-16 13:34:00
8:00 AM,68.0,62.6,83,30.24,6.2,NNE,6.9,-,N/A,,Mostly Cloudy,20,2013-08-16 14:00:00
9:00 AM,71.6,62.6,73,30.27,6.2,NNE,9.2,-,N/A,,Mostly Cloudy,30,2013-08-16 15:00:00
10:00 AM,73.4,60.8,65,30.24,6.2,NNE,6.9,-,N/A,,Mostly Cloudy,30,2013-08-16 16:00:00
11:00 AM,75.2,62.6,65,30.24,6.2,NE,9.2,-,N/A,,Mostly Cloudy,40,2013-08-16 17:00:00
12:00 PM,75,62,56,29.86,25,NNE,9.2,,,,Overcast,30,2013-08-16 18:00:00
12:00 PM,75.2,62.6,65,30.21,6.2,NNE,9.2,-,N/A,,Mostly Cloudy,30,2013-08-16 18:00:00
1:00 PM,75.2,62.6,65,30.18,6.2,North,9.2,-,N/A,,Scattered Clouds,360,2013-08-16 19:00:00
1:35 PM,-9999,-9999,N/A,-9999,6.2,NNE,11.5,-,N/A,Thunderstorm,Thunderstorm,30,2013-08-16 19:35:00
2:00 PM,75.2,62.6,65,30.18,6.2,NE,9.2,-,N/A,Thunderstorm,Thunderstorm,50,2013-08-16 20:00:00
2:25 PM,-9999,-9999,N/A,-9999,5.0,NE,9.2,-,N/A,Thunderstorm,Thunderstorm,40,2013-08-16 20:25:00
3:00 PM,73.4,62.6,69,30.15,6.2,ENE,6.9,-,N/A,,Mostly Cloudy,60,2013-08-16 21:00:00
3:20 PM,-9999,-9999,N/A,-9999,6.2,SSW,9.2,-,N/A,,Scattered Clouds,210,2013-08-16 21:20:00
4:00 PM,73.4,62.6,69,30.15,6.2,SSE,6.9,-,N/A,,Scattered Clouds,160,2013-08-16 22:00:00
5:00 PM,71.6,62.6,73,30.15,5.0,SSE,11.5,-,N/A,Rain,Rain,160,2013-08-16 23:00:00
5:20 PM,-9999,-9999,N/A,-9999,4.3,South,6.9,-,N/A,Rain,Light Rain,170,2013-08-16 23:20:00
6:00 PM,68.0,60.8,78,30.18,1.9,SW,9.2,-,N/A,Rain-Thunderstorm,Thunderstorms and Rain,220,2013-08-17 00:00:00
6:26 PM,-9999,-9999,N/A,-9999,0.9,SSW,6.9,-,N/A,,Drizzle,200,2013-08-17 00:26:00
6:37 PM,-9999,-9999,N/A,-9999,0.5,SSW,6.9,-,N/A,Rain,Heavy Rain,200,2013-08-17 00:37:00
6:45 PM,-9999,-9999,N/A,-9999,0.6,SSE,9.2,-,N/A,Rain-Thunderstorm,Heavy Thunderstorms and Rain,150,2013-08-17 00:45:00
7:00 PM,64.4,64.4,100,30.21,0.5,SSE,9.2,-,N/A,Rain-Thunderstorm,Heavy Thunderstorms and Rain,160,2013-08-17 01:00:00
7:20 PM,-9999,-9999,N/A,-9999,1.9,SSE,4.6,-,N/A,Rain,Rain,150,2013-08-17 01:20:00
7:40 PM,-9999,-9999,N/A,-9999,0.5,South,6.9,-,N/A,Rain-Thunderstorm,Heavy Thunderstorms and Rain,190,2013-08-17 01:40:00
8:00 PM,64.4,64.4,100,30.27,0.5,SSW,6.9,-,N/A,Rain-Thunderstorm,Heavy Thunderstorms and Rain,200,2013-08-17 02:00:00
8:20 PM,-9999,-9999,N/A,-9999,1.2,SW,6.9,-,N/A,Rain-Thunderstorm,Thunderstorms and Rain,220,2013-08-17 02:20:00
9:00 PM,62.6,62.6,100,30.30,0.6,South,4.6,-,N/A,Rain-Thunderstorm,Heavy Thunderstorms and Rain,190,2013-08-17 03:00:00
9:16 PM,-9999,-9999,N/A,-9999,1.6,SSW,4.6,-,N/A,Rain-Thunderstorm,Thunderstorms and Rain,200,2013-08-17 03:16:00
10:00 PM,62.6,62.6,100,30.33,5.0,SW,4.6,-,N/A,Rain-Thunderstorm,Light Thunderstorms and Rain,220,2013-08-17 04:00:00
10:18 PM,-9999,-9999,N/A,-9999,6.2,WSW,4.6,-,N/A,,Light Drizzle,240,2013-08-17 04:18:00
11:00 PM,62.6,62.6,100,30.30,6.2,Calm,Calm,-,N/A,,Mostly Cloudy,0,2013-08-17 05:00:00